Location: Baia de Cri?
(46.1667°N, 22.7167°E)
Time: 08:33:15
(UTC+00:00)

Cosmos 2082 Rocket - Pass Details

Date: 15 January 2026
Orbit: 832 x 853 km, 71.0° (Epoch: 10 February)

Event Time Altitude Azimuth Distance (km) Brightness Sun altitude
Exits shadow 04:54:36 - 331° (NNW) 2,736 4.4 -12.4°
Reaches altitude 10° 04:55:17 10° 330° (NNW) 2,472 4.2 -12.3°
Maximum altitude 05:00:57 73° 247° (WSW) 887 2.2 -11.3°
Drops below altitude 10° 05:06:36 10° 164° (SSE) 2,469 5.1 -10.4°
Sets 05:09:02 0° 162° (SSE) 3,402 5.9 -10.0°
